Location: Unspecified
(0.0000°N, 0.0000°E)
Time: 12:20:32
(UTC+02:00)

Ariane H10 - Visible Passes

Search period start: 21 October 2014 00:00
Search period end: 30 October 2014 23:00
Orbit: 416 x 35115 km, 4.6° (Epoch: 18 October)

Date Brightness Start Highest point End Pass type
(mag) Time Alt. Az. Time Alt. Az. Time Alt. Az.
21 Oct 5.2 10:24:40 10° W 10:32:01 82° N 20:05:46 10° E visible
22 Oct 2.4 07:01:35 15° WNW 07:03:35 42° N 07:08:24 10° E visible
22 Oct 10.5 18:21:55 10° W 19:49:15 28° W 23:08:16 10° W visible
23 Oct 6.5 14:30:14 10° W 00:00:48 83° WSW 00:00:48 83° WSW visible
24 Oct 5.7 11:02:33 10° W 11:12:33 86° N 20:45:39 14° E visible
25 Oct 11.5 19:25:07 10° W 20:26:50 16° W 22:06:30 10° W visible
26 Oct 6.7 14:10:32 10° W 23:37:34 63° W 23:37:34 63° W visible
27 Oct 6.1 10:40:38 10° W 10:54:41 90° N 20:22:26 26° E visible
29 Oct 6.9 14:52:06 10° W 00:14:21 45° W 00:14:21 45° W visible
30 Oct 6.6 11:18:59 10° W 11:39:39 88° S 20:59:12 39° E visible
